Regional Weather Roundup
Issued by NWS

Home | Current Version | Previous Version | Text Only | Print | Product List | Glossary Off
Versions: 1 2 3 4 5 6 7 8 9 10 11 12 13 14 15 16 17 18 19 20 21 22 23 24 25 26 27 28 29 30 31 32 33 34 35 36 37 38 39 40 41 42 43 44 45 46 47 48 49 50

000
ASUS43 KLMK 110802
RWRKY
KENTUCKY REGIONAL WEATHER ROUNDUP
NATIONAL WEATHER SERVICE LOUISVILLE KY
300 AM EST MON DEC 11 2017

NOTE "FAIR" INDICATES FEW OR NO CLOUDS BELOW 12,000 FEET
WITH NO SIGNIFICANT WEATHER AND/OR OBSTRUCTIONS TO VISIBILITY.

KYZ001>023-026-027-061>063-070>075-110900-
WESTERN AND SOUTH CENTRAL KENTUCKY

CITY           SKY/WX    TMP DP  RH WIND       PRES   REMARKS
PADUCAH        CLEAR     28  23  81 CALM      30.13F
HENDERSON      CLEAR     25  24  96 CALM      30.14F
OWENSBORO      CLEAR     27  23  85 CALM      30.15R
HOPKINSVILLE   CLEAR     35  25  65 CALM      30.14F
BOWLING GREEN  CLEAR     30  23  75 CALM      30.16S
GLASGOW        NOT AVBL
$$

KYZ024-025-028>034-038-045-046-053-110900-
NORTH CENTRAL KENTUCKY

CITY           SKY/WX    TMP DP  RH WIND       PRES   REMARKS
LOUISVILLE/SDF CLEAR     33  24  69 SW6       30.12S WCI  28
LOUISVILLE/LOU CLEAR     28  23  81 CALM      30.13S
FORT KNOX      CLEAR     26  22  84 CALM      30.11R
$$

KYZ035>037-039>044-047>052-055>060-089>105-110900-
NORTHEAST KENTUCKY

CITY           SKY/WX    TMP DP  RH WIND       PRES   REMARKS
LEXINGTON      CLEAR     30  21  69 SW5       30.11S WCI  25
COVINGTON      CLEAR     28  22  78 W6        30.08S WCI  22
FRANKFORT      CLEAR     29  20  69 SW5       30.10S WCI  24
$$

KYZ054-064>069-076>088-106>120-110900-
SOUTHEAST KENTUCKY

CITY           SKY/WX    TMP DP  RH WIND       PRES   REMARKS
JACKSON        CLEAR     34  21  59 VRB6      30.10S WCI  29
LONDON         CLEAR     32  20  61 SW3       30.13S
SOMERSET       NOT AVBL
MIDDLESBORO    CLEAR     27  23  83 CALM      30.16R
MONTICELLO     SUNNY     28  23  81 N8        30.16S WCI  20
$$





USA.gov is the U.S. government's official web portal to all federal, state and local government web resources and services.